Weather History for KHYR - August, 2012

Change the Weather History Date:

Tuesday, August 28, 2012

  Actual Average Record
Temperature  
Mean Temperature 64 °F -  
Max Temperature 80 °F 85 °F 91 °F (1973)
Min Temperature 48 °F 60 °F 39 °F (1996)
Degree Days  
Heating Degree Days 2    
Growing Degree Days 14 (Base 50)    
Moisture  
Dew Point 55 °F    
Average Humidity 73    
Maximum Humidity 97    
Minimum Humidity 45    
Precipitation  
Precipitation 0.00 in - - ()
Sea Level Pressure  
Sea Level Pressure 30.12 in    
Wind  
Wind Speed 1 mph (South)    
Max Wind Speed 6 mph    
Max Gust Speed -    
Visibility 10 miles    
Events      
Averages and records for this station are not official NWS values.
T = Trace of Precipitation, MM = Missing Value Source: NWS Daily Summary

Daily Weather History Graph

Daily Weather History Graph

Search for Another Location

Airport or City:

Trip Planner

Search our weather history database for the weather conditions in past years. The results will help you decide how hot, cold, wet, or windy it might be!

Date:

Astronomy

Aug. 28, 2012 Rise Set
Actual Time 6:22 AM CDT 7:50 PM CDT
Civil Twilight 5:50 AM CDT 8:21 PM CDT
Nautical Twilight 5:13 AM CDT 8:59 PM CDT
Astronomical Twilight 4:32 AM CDT 9:39 PM CDT
Moon 5:58 PM CDT (8/28) 3:04 AM CDT (8/28)
Length of Visible Light 14h 30m
Length of Day
13h 28m
Waxing Gibbous, 90% of the Moon is Illuminated
Aug 28
Waxing Gibbous
Aug 31
Full
Sep 8
Last Quarter
Sep 15
New
Sep 22
First Quarter

Hourly Weather History & Observations

Time (CDT) Temp. Dew Point Humidity Pressure Visibility Wind Dir Wind Speed Gust Speed Precip Events Conditions
12:53 AM 53.1 °F 51.1 °F 93% 30.16 in 7.0 mi Calm Calm - N/A   Clear
1:53 AM 51.1 °F 48.9 °F 92% 30.16 in 10.0 mi Calm Calm - N/A   Clear
2:53 AM 50.0 °F 48.9 °F 96% 30.16 in 10.0 mi Calm Calm - N/A   Mostly Cloudy
3:53 AM 52.0 °F 51.1 °F 97% 30.16 in 10.0 mi Calm Calm - N/A   Mostly Cloudy
4:53 AM 50.0 °F 48.9 °F 96% 30.17 in 10.0 mi Calm Calm - N/A   Overcast
5:53 AM 50.0 °F 48.0 °F 93% 30.15 in 10.0 mi Calm Calm - N/A   Partly Cloudy
6:53 AM 48.9 °F 48.0 °F 97% 30.17 in 10.0 mi Calm Calm - N/A   Clear
7:53 AM 55.9 °F 53.1 °F 90% 30.20 in 10.0 mi Calm Calm - N/A   Clear
8:53 AM 64.9 °F 59.0 °F 81% 30.19 in 10.0 mi Calm Calm - N/A   Clear
10:53 AM 73.9 °F 57.9 °F 57% 30.18 in 10.0 mi Variable 3.5 mph - N/A   Scattered Clouds
11:53 AM 75.0 °F 57.0 °F 53% 30.19 in 10.0 mi South 4.6 mph - N/A   Mostly Cloudy
12:53 PM 75.9 °F 55.9 °F 50% 30.16 in 10.0 mi SSW 4.6 mph - N/A   Scattered Clouds
1:53 PM 78.1 °F 55.9 °F 46% 30.12 in 10.0 mi Variable 4.6 mph - N/A   Clear
2:53 PM 78.1 °F 55.9 °F 46% 30.10 in 10.0 mi SSE 3.5 mph - N/A   Clear
3:53 PM 79.0 °F 55.9 °F 45% 30.09 in 10.0 mi SSE 5.8 mph - N/A   Clear
4:53 PM 79.0 °F 55.9 °F 45% 30.08 in 10.0 mi South 4.6 mph - N/A   Clear
5:53 PM 78.1 °F 55.9 °F 46% 30.07 in 10.0 mi South 3.5 mph - N/A   Clear
6:53 PM 75.9 °F 57.9 °F 54% 30.06 in 10.0 mi South 3.5 mph - N/A   Clear
7:53 PM 69.1 °F 61.0 °F 75% 30.06 in 10.0 mi Calm Calm - N/A   Clear
8:53 PM 63.0 °F 59.0 °F 87% 30.06 in 10.0 mi Calm Calm - N/A   Clear
9:53 PM 63.0 °F 57.9 °F 84% 30.06 in 10.0 mi Calm Calm - N/A   Clear
10:53 PM 63.0 °F 57.0 °F 81% 30.06 in 10.0 mi Calm Calm - N/A   Clear
11:53 PM 62.1 °F 55.9 °F 80% 30.06 in 10.0 mi Calm Calm - N/A   Clear